TimeEET,TemperatureF,Dew PointF,Humidity,Sea Level PressureIn,VisibilityMPH,Wind Direction,Wind SpeedMPH,Gust SpeedMPH,PrecipitationIn,Events,Conditions,WindDirDegrees,DateUTC
12:00 AM,6,5,92,29.97,6,North,2.2,,,,,10,2010-02-09 22:00:00
12:00 AM,14.0,12.2,93,29.92,0.9,Variable,2.3,-,N/A,Fog,Fog,0,2010-02-09 22:00:00
12:30 AM,14.0,12.2,93,29.95,0.7,NE,1.2,-,N/A,Fog,Shallow Fog,50,2010-02-09 22:30:00
1:00 AM,11,9,89,29.98,6,North,4.5,,,,,0,2010-02-09 23:00:00
1:00 AM,14.0,12.2,93,29.95,0.1,NE,1.2,-,N/A,Fog,Light Freezing Fog,40,2010-02-09 23:00:00
1:30 AM,12.2,10.4,92,29.95,0.5,NE,3.5,-,N/A,Fog,Light Freezing Fog,40,2010-02-09 23:30:00
2:00 AM,11,9,89,29.98,2,NNE,2.2,,,,Mist,30,2010-02-10 00:00:00
2:00 AM,10.4,8.6,92,29.95,0.5,ENE,3.5,-,N/A,Fog,Light Freezing Fog,70,2010-02-10 00:00:00
2:30 AM,10.4,10.4,100,29.95,0.2,East,1.2,-,N/A,Fog,Light Freezing Fog,80,2010-02-10 00:30:00
3:00 AM,10,8,89,29.99,2,North,2.2,,,,Mist,0,2010-02-10 01:00:00
3:00 AM,10.4,8.6,92,29.95,0.2,NE,2.3,-,N/A,Fog,Light Freezing Fog,50,2010-02-10 01:00:00
3:30 AM,10.4,10.4,100,29.95,0.4,NE,1.2,-,N/A,Fog,Light Freezing Fog,50,2010-02-10 01:30:00
4:00 AM,10,8,90,29.98,2,North,2.2,,,,Mist,0,2010-02-10 02:00:00
4:00 AM,10.4,10.4,100,29.95,0.2,NE,3.5,-,N/A,Fog,Light Freezing Fog,50,2010-02-10 02:00:00
4:30 AM,12.2,10.4,92,29.95,0.2,ENE,3.5,-,N/A,Fog,Light Freezing Fog,70,2010-02-10 02:30:00
5:00 AM,12,10,88,29.98,0,NE,2.2,,,Fog,Partial Fog,50,2010-02-10 03:00:00
5:00 AM,12.2,12.2,100,29.95,0.1,ENE,3.5,-,N/A,Fog,Light Freezing Fog,70,2010-02-10 03:00:00
5:30 AM,12.2,12.2,100,29.95,0.4,ENE,4.6,-,N/A,Fog,Light Freezing Fog,60,2010-02-10 03:30:00
6:00 AM,12,11,92,29.98,1,NNE,4.5,,,,Mist,30,2010-02-10 04:00:00
6:00 AM,14.0,12.2,93,29.95,0.4,ENE,5.8,-,N/A,Fog,Light Freezing Fog,70,2010-02-10 04:00:00
6:30 AM,14.0,12.2,93,29.95,0.2,East,4.6,-,N/A,Fog,Light Freezing Fog,80,2010-02-10 04:30:00
7:00 AM,13,12,92,29.97,2,NE,2.2,,,,Mist,40,2010-02-10 05:00:00
7:00 AM,14.0,14.0,100,29.95,0.2,East,5.8,-,N/A,Fog,Light Freezing Fog,80,2010-02-10 05:00:00
7:30 AM,15.8,14.0,93,29.95,0.2,East,6.9,-,N/A,Fog,Light Freezing Fog,90,2010-02-10 05:30:00
8:00 AM,15,13,91,29.97,1,NE,4.5,,,,Mist,50,2010-02-10 06:00:00
8:00 AM,15.8,15.8,100,29.95,0.1,East,8.1,-,N/A,Fog,Light Freezing Fog,80,2010-02-10 06:00:00
8:30 AM,15.8,15.8,100,29.95,0.5,East,9.2,-,N/A,Fog,Light Freezing Fog,90,2010-02-10 06:30:00
9:00 AM,16,15,94,29.98,,ENE,4.5,,,,,60,2010-02-10 07:00:00
9:00 AM,15.8,15.8,100,29.95,1.2,East,8.1,-,N/A,,Overcast,80,2010-02-10 07:00:00
9:30 AM,15.8,14.0,93,29.95,1.6,ENE,8.1,-,N/A,,Overcast,70,2010-02-10 07:30:00
10:00 AM,16,14,90,29.98,,ENE,6.7,,,,,60,2010-02-10 08:00:00
10:00 AM,15.8,14.0,93,29.95,1.6,East,6.9,-,N/A,,Mostly Cloudy,80,2010-02-10 08:00:00
10:30 AM,17.6,17.6,100,29.95,1.7,ENE,8.1,-,N/A,,Scattered Clouds,60,2010-02-10 08:30:00
11:00 AM,20,18,89,29.96,,North,4.5,,,,,10,2010-02-10 09:00:00
11:00 AM,19.4,19.4,100,29.95,1.9,East,11.5,-,N/A,,Mist,80,2010-02-10 09:00:00
11:30 AM,21.2,19.4,93,29.92,2.5,East,13.8,-,N/A,,Mist,80,2010-02-10 09:30:00
12:00 PM,23,20,86,29.96,,ENE,8.9,,,,,60,2010-02-10 10:00:00
12:00 PM,21.2,21.2,100,29.92,3.1,East,15.0,-,N/A,,Partly Cloudy,80,2010-02-10 10:00:00
12:30 PM,21.2,19.4,93,29.92,3.1,East,16.1,-,N/A,,Scattered Clouds,80,2010-02-10 10:30:00
1:00 PM,23,16,63,29.94,6,NE,13.4,,,,Clear,50,2010-02-10 11:00:00
1:00 PM,21.2,19.4,93,29.89,3.7,East,15.0,-,N/A,,Mostly Cloudy,80,2010-02-10 11:00:00
1:30 PM,23.0,19.4,86,29.89,3.7,ENE,13.8,-,N/A,,Mostly Cloudy,70,2010-02-10 11:30:00
2:00 PM,24,16,62,29.93,6,ENE,13.4,,,,Overcast,60,2010-02-10 12:00:00
2:00 PM,24.8,21.2,86,29.89,4.3,East,13.8,-,N/A,,Overcast,80,2010-02-10 12:00:00
2:30 PM,24.8,19.4,80,29.89,4.3,ENE,13.8,-,N/A,,Mostly Cloudy,70,2010-02-10 12:30:00
3:00 PM,24,16,60,29.92,6,NE,13.4,,,,Overcast,50,2010-02-10 13:00:00
3:00 PM,24.8,21.2,86,29.86,4.3,East,15.0,-,N/A,,Mostly Cloudy,80,2010-02-10 13:00:00
3:30 PM,24.8,21.2,86,29.86,4.3,East,16.1,-,N/A,,Overcast,80,2010-02-10 13:30:00
4:00 PM,24,17,64,29.89,6,ENE,11.2,,,,Overcast,60,2010-02-10 14:00:00
4:00 PM,24.8,21.2,86,29.86,4.3,East,13.8,-,N/A,,Overcast,80,2010-02-10 14:00:00
4:30 PM,24.8,23.0,93,29.86,4.3,East,13.8,-,N/A,,Overcast,80,2010-02-10 14:30:00
5:00 PM,24,18,71,29.88,6,NE,13.4,,,,Overcast,50,2010-02-10 15:00:00
5:00 PM,24.8,23.0,93,29.86,3.7,East,16.1,-,N/A,,Overcast,80,2010-02-10 15:00:00
5:30 PM,24.8,23.0,93,29.83,3.1,East,16.1,-,N/A,,Overcast,80,2010-02-10 15:30:00
6:00 PM,24,20,77,29.88,2,ENE,13.4,,,,Mist,60,2010-02-10 16:00:00
6:00 PM,24.8,23.0,93,29.83,3.1,East,16.1,-,N/A,,Overcast,80,2010-02-10 16:00:00
6:30 PM,24.8,23.0,93,29.83,3.1,East,17.3,-,N/A,,Overcast,80,2010-02-10 16:30:00
7:00 PM,24,20,78,29.87,2,ENE,13.4,,,,Mist,60,2010-02-10 17:00:00
7:00 PM,24.8,23.0,93,29.83,3.1,East,16.1,-,N/A,,Overcast,80,2010-02-10 17:00:00
7:30 PM,24.8,24.8,100,29.83,3.1,East,17.3,-,N/A,Snow,Light Low Drifting Snow,80,2010-02-10 17:30:00
8:00 PM,25,22,83,29.85,2,ENE,15.7,,,,Mist,60,2010-02-10 18:00:00
8:00 PM,26.6,24.8,93,29.80,3.1,East,17.3,-,N/A,Snow,Light Low Drifting Snow,80,2010-02-10 18:00:00
8:30 PM,26.6,26.6,100,29.80,2.5,East,17.3,-,N/A,Snow,Light Low Drifting Snow,80,2010-02-10 18:30:00
9:00 PM,26,24,87,29.82,2,NE,15.7,,,,Mist,50,2010-02-10 19:00:00
9:00 PM,26.6,26.6,100,29.80,1.9,East,18.4,-,N/A,Snow,Light Low Drifting Snow,80,2010-02-10 19:00:00
9:30 PM,28.4,26.6,93,29.77,1.9,East,17.3,-,N/A,Snow,Light Low Drifting Snow,80,2010-02-10 19:30:00
10:00 PM,28,25,83,29.81,2,ENE,17.9,,,,Mist,60,2010-02-10 20:00:00
10:00 PM,28.4,28.4,100,29.77,0.9,East,19.6,-,N/A,Snow,Light Snow,80,2010-02-10 20:00:00
10:30 PM,28.4,26.6,93,29.74,0.7,ENE,20.7,-,N/A,Snow,Light Snow,70,2010-02-10 20:30:00
11:00 PM,27,26,93,29.77,2,NE,17.9,,,Snow,Light Snow,50,2010-02-10 21:00:00
11:00 PM,28.4,26.6,93,29.71,0.7,East,19.6,-,N/A,Snow,Light Snow,80,2010-02-10 21:00:00
11:30 PM,28.4,26.6,93,29.71,0.7,East,19.6,-,N/A,Snow,Light Snow,80,2010-02-10 21:30:00